Timestamp, Local Timestamp, ID, PM25, PM10, Co2, Temperature, Relative Humidity, Monitor ID, O3
2023-03-01T13:28:31Z,03/01/23 08:28,10010198,0.36,0.0,512,22.1,29.9,84,0.0
2023-03-01T13:29:31Z,03/01/23 08:29,10010202,0.361,0.002,496,22.2,29.8,84,0.0
2023-03-01T13:30:31Z,03/01/23 08:30,10010206,0.27,0.0,500,22.2,29.8,84,0.0
2023-03-01T13:31:31Z,03/01/23 08:31,10010210,0.23199999999999998,0.002,484,22.3,29.7,84,0.0
2023-03-01T13:32:31Z,03/01/23 08:32,10010214,0.294,0.0,484,22.3,29.7,84,0.0
2023-03-01T13:33:31Z,03/01/23 08:33,10010218,0.351,0.0,492,22.4,29.7,84,0.0
2023-03-01T13:34:31Z,03/01/23 08:34,10010222,0.172,0.002,492,22.5,29.6,84,0.0
2023-03-01T13:35:31Z,03/01/23 08:35,10010226,0.268,0.002,485,22.5,29.5,84,1.0
2023-03-01T13:36:31Z,03/01/23 08:36,10010230,0.256,0.002,492,22.6,29.5,84,3.0
2023-03-01T13:37:31Z,03/01/23 08:37,10010234,0.27599999999999997,0.0,493,22.6,29.5,84,5.0
2023-03-01T13:38:31Z,03/01/23 08:38,10010238,0.298,0.002,492,22.6,29.4,84,5.0
2023-03-01T13:39:31Z,03/01/23 08:39,10010242,0.267,0.0,500,22.7,29.4,84,6.0
2023-03-01T13:40:31Z,03/01/23 08:40,10010246,0.306,0.0,499,22.8,29.3,84,5.0
2023-03-01T13:41:31Z,03/01/23 08:41,10010250,0.309,0.0,495,22.8,29.2,84,7.0
2023-03-01T13:42:31Z,03/01/23 08:42,10010254,0.23399999999999999,0.0,524,22.8,29.2,84,6.0
2023-03-01T13:43:31Z,03/01/23 08:43,10010258,0.29100000000000004,0.0,501,22.9,29.2,84,8.0
2023-03-01T13:44:31Z,03/01/23 08:44,10010262,0.21600000000000003,0.0,513,22.9,29.2,84,8.0
2023-03-01T13:45:31Z,03/01/23 08:45,10010266,0.27999999999999997,0.002,507,22.9,29.2,84,8.0
2023-03-01T13:46:31Z,03/01/23 08:46,10010270,0.23399999999999999,0.0,510,23.0,29.1,84,7.0
2023-03-01T13:47:31Z,03/01/23 08:47,10010273,0.275,0.004,508,23.0,29.1,84,9.0
2023-03-01T13:48:31Z,03/01/23 08:48,10010276,0.248,0.004,497,23.1,29.1,84,8.0
2023-03-01T13:49:31Z,03/01/23 08:49,10010279,0.23700000000000002,0.0,515,23.1,29.1,84,10.0
2023-03-01T13:50:31Z,03/01/23 08:50,10010283,0.22200000000000003,0.0,506,23.1,29.1,84,9.0
2023-03-01T13:51:31Z,03/01/23 08:51,10010287,0.20600000000000002,0.004,511,23.1,29.1,84,9.0
2023-03-01T13:52:31Z,03/01/23 08:52,10010291,0.22599999999999998,0.002,514,23.2,29.1,84,10.0
2023-03-01T13:53:31Z,03/01/23 08:53,10010295,0.22000000000000003,0.002,501,23.2,29.1,84,10.0
2023-03-01T13:54:31Z,03/01/23 08:54,10010299,0.256,0.002,518,23.2,29.1,84,10.0
2023-03-01T13:55:31Z,03/01/23 08:55,10010303,0.22799999999999998,0.0,518,23.2,29.1,84,11.0
2023-03-01T13:56:31Z,03/01/23 08:56,10010307,0.246,0.0,517,23.2,29.0,84,9.0
2023-03-01T13:57:31Z,03/01/23 08:57,10010311,0.184,0.002,527,23.2,29.0,84,9.0
2023-03-01T13:58:31Z,03/01/23 08:58,10010315,0.20400000000000001,0.0,521,23.2,29.0,84,10.0
2023-03-01T13:59:31Z,03/01/23 08:59,10010319,0.258,0.0,523,23.2,28.9,84,10.0
2023-03-01T14:00:31Z,03/01/23 09:00,10010323,0.162,0.0,517,23.2,28.9,84,10.0
2023-03-01T14:01:31Z,03/01/23 09:01,10010327,0.28500000000000003,0.0,530,23.2,28.9,84,11.0
2023-03-01T14:02:31Z,03/01/23 09:02,10010331,0.22200000000000003,0.0,523,23.2,28.9,84,10.0
2023-03-01T14:03:31Z,03/01/23 09:03,10010336,0.268,0.002,518,23.2,28.9,84,10.0
2023-03-01T14:04:31Z,03/01/23 09:04,10010340,0.21600000000000003,0.0,515,23.3,29.0,84,10.0
2023-03-01T14:05:31Z,03/01/23 09:05,10010345,0.356,0.004,525,23.3,28.9,84,10.0
2023-03-01T14:06:31Z,03/01/23 09:06,10010350,0.23399999999999999,0.0,527,23.3,28.9,84,10.0
2023-03-01T14:07:31Z,03/01/23 09:07,10010355,0.262,0.002,520,23.3,28.9,84,10.0
2023-03-01T14:08:31Z,03/01/23 09:08,10010360,0.262,0.002,527,23.3,28.9,84,10.0
2023-03-01T14:09:31Z,03/01/23 09:09,10010364,0.27,0.0,523,23.3,28.9,84,10.0
2023-03-01T14:10:31Z,03/01/23 09:10,10010368,0.288,0.0,524,23.3,28.9,84,11.0
2023-03-01T14:11:31Z,03/01/23 09:11,10010373,0.277,0.002,525,23.3,28.9,84,10.0
2023-03-01T14:12:31Z,03/01/23 09:12,10010378,0.28300000000000003,0.002,531,23.3,28.9,84,10.0
2023-03-01T14:13:31Z,03/01/23 09:13,10010383,0.156,0.0,535,23.3,28.9,84,11.0
2023-03-01T14:14:31Z,03/01/23 09:14,10010388,0.258,0.0,538,23.3,28.9,84,11.0
2023-03-01T14:15:31Z,03/01/23 09:15,10010393,0.192,0.0,535,23.3,28.9,84,11.0
2023-03-01T14:16:31Z,03/01/23 09:16,10010398,0.246,0.0,530,23.4,28.8,84,10.0
2023-03-01T14:17:31Z,03/01/23 09:17,10010403,0.429,0.0,531,23.4,28.8,84,11.0
2023-03-01T14:18:31Z,03/01/23 09:18,10010408,0.20400000000000001,0.0,538,23.4,28.8,84,11.0
2023-03-01T14:19:31Z,03/01/23 09:19,10010413,0.294,0.0,538,23.4,28.8,84,11.0
2023-03-01T14:20:31Z,03/01/23 09:20,10010418,0.32799999999999996,0.002,541,23.4,28.8,84,11.0
2023-03-01T14:21:31Z,03/01/23 09:21,10010423,0.27,0.0,542,23.4,28.8,84,10.0
2023-03-01T14:22:31Z,03/01/23 09:22,10010428,0.315,0.0,538,23.4,28.8,84,10.0
2023-03-01T14:23:31Z,03/01/23 09:23,10010432,0.23399999999999999,0.0,539,23.4,28.8,84,11.0
2023-03-01T14:24:31Z,03/01/23 09:24,10010436,0.20600000000000002,0.004,535,23.4,28.8,84,11.0
2023-03-01T14:25:31Z,03/01/23 09:25,10010440,0.318,0.0,534,23.4,28.8,84,10.0
2023-03-01T14:26:31Z,03/01/23 09:26,10010444,0.331,0.002,538,23.4,28.8,84,10.0
2023-03-01T14:27:31Z,03/01/23 09:27,10010450,0.28900000000000003,0.002,535,23.4,28.8,84,10.0
2023-03-01T14:28:31Z,03/01/23 09:28,10010455,0.393,0.0,535,23.4,28.8,84,10.0
2023-03-01T14:29:31Z,03/01/23 09:29,10010459,0.34199999999999997,0.0,531,23.4,28.8,84,11.0
2023-03-01T14:30:31Z,03/01/23 09:30,10010464,0.33399999999999996,0.002,539,23.4,28.8,84,11.0
2023-03-01T14:31:31Z,03/01/23 09:31,10010469,0.33599999999999997,0.0,546,23.4,28.8,84,11.0
2023-03-01T14:32:31Z,03/01/23 09:32,10010474,0.304,0.002,541,23.4,28.8,84,11.0
2023-03-01T14:33:31Z,03/01/23 09:33,10010478,0.262,0.002,544,23.4,28.8,84,11.0
2023-03-01T14:34:31Z,03/01/23 09:34,10010482,0.313,0.002,539,23.4,28.8,84,10.0
2023-03-01T14:35:31Z,03/01/23 09:35,10010487,0.27599999999999997,0.0,549,23.4,28.9,84,11.0
2023-03-01T14:36:31Z,03/01/23 09:36,10010492,0.335,0.004,554,23.4,28.9,84,10.0
2023-03-01T14:37:31Z,03/01/23 09:37,10010497,0.318,0.0,552,23.5,29.0,84,10.0
2023-03-01T14:38:31Z,03/01/23 09:38,10010501,0.363,0.0,559,23.5,29.0,84,10.0
2023-03-01T14:39:31Z,03/01/23 09:39,10010506,0.465,0.0,569,23.5,29.1,84,10.0
2023-03-01T14:40:31Z,03/01/23 09:40,10010511,0.28500000000000003,0.0,571,23.5,29.1,84,10.0
2023-03-01T14:41:31Z,03/01/23 09:41,10010516,0.31,0.002,572,23.5,29.1,84,10.0
2023-03-01T14:42:31Z,03/01/23 09:42,10010520,0.322,0.002,575,23.5,29.2,84,9.0
2023-03-01T14:43:31Z,03/01/23 09:43,10010525,0.33599999999999997,0.0,588,23.5,29.2,84,9.0
2023-03-01T14:44:31Z,03/01/23 09:44,10010530,0.324,0.0,588,23.5,29.2,84,9.0
2023-03-01T14:45:31Z,03/01/23 09:45,10010535,0.36,0.0,600,23.5,29.2,84,10.0
2023-03-01T14:46:31Z,03/01/23 09:46,10010540,0.22200000000000003,0.0,597,23.6,29.2,84,10.0
2023-03-01T14:47:31Z,03/01/23 09:47,10010545,0.20800000000000002,0.002,600,23.6,29.2,84,10.0
2023-03-01T14:48:31Z,03/01/23 09:48,10010550,0.263,0.004,581,23.6,29.2,84,10.0
2023-03-01T14:49:31Z,03/01/23 09:49,10010554,0.23399999999999999,0.0,593,23.6,29.2,84,10.0
2023-03-01T14:50:31Z,03/01/23 09:50,10010558,0.27,0.0,599,23.6,29.2,84,10.0
2023-03-01T14:51:31Z,03/01/23 09:51,10010562,0.27,0.0,593,23.6,29.2,84,10.0
2023-03-01T14:52:31Z,03/01/23 09:52,10010567,0.198,0.0,587,23.6,29.2,84,10.0
2023-03-01T14:53:31Z,03/01/23 09:53,10010572,0.259,0.002,582,23.6,29.2,84,10.0
2023-03-01T14:54:31Z,03/01/23 09:54,10010576,0.198,0.0,582,23.6,29.2,84,10.0
2023-03-01T14:55:31Z,03/01/23 09:55,10010580,0.27999999999999997,0.002,582,23.6,29.2,84,10.0
2023-03-01T14:56:31Z,03/01/23 09:56,10010585,0.21600000000000003,0.0,578,23.6,29.2,84,10.0
2023-03-01T14:57:31Z,03/01/23 09:57,10010590,0.18,0.0,575,23.6,29.2,84,10.0
2023-03-01T14:58:31Z,03/01/23 09:58,10010595,0.282,0.0,587,23.6,29.2,84,10.0
2023-03-01T14:59:31Z,03/01/23 09:59,10010600,0.24,0.0,571,23.6,29.2,84,10.0
2023-03-01T15:00:31Z,03/01/23 10:00,10010605,0.264,0.0,575,23.6,29.2,84,11.0
2023-03-01T15:01:31Z,03/01/23 10:01,10010610,0.282,0.0,580,23.6,29.2,84,10.0
2023-03-01T15:02:31Z,03/01/23 10:02,10010615,0.298,0.002,575,23.6,29.2,84,11.0
2023-03-01T15:03:31Z,03/01/23 10:03,10010620,0.20800000000000002,0.002,574,23.6,29.2,84,11.0
2023-03-01T15:04:31Z,03/01/23 10:04,10010625,0.264,0.0,580,23.6,29.2,84,11.0
2023-03-01T15:05:31Z,03/01/23 10:05,10010630,0.196,0.002,587,23.6,29.2,84,11.0
2023-03-01T15:06:31Z,03/01/23 10:06,10010635,0.213,0.0,594,23.6,29.2,84,10.0
2023-03-01T15:07:31Z,03/01/23 10:07,10010640,0.198,0.0,580,23.6,29.2,84,10.0
2023-03-01T15:08:31Z,03/01/23 10:08,10010645,0.261,0.0,588,23.6,29.2,84,11.0
2023-03-01T15:09:31Z,03/01/23 10:09,10010650,0.277,0.002,577,23.6,29.2,84,11.0
2023-03-01T15:10:31Z,03/01/23 10:10,10010655,0.22799999999999998,0.0,575,23.6,29.2,84,11.0
2023-03-01T15:11:31Z,03/01/23 10:11,10010660,0.282,0.0,581,23.6,29.2,84,10.0
2023-03-01T15:12:31Z,03/01/23 10:12,10010665,0.144,0.0,571,23.6,29.2,84,10.0
2023-03-01T15:13:31Z,03/01/23 10:13,10010670,0.22200000000000003,0.0,574,23.6,29.2,84,11.0
2023-03-01T15:14:31Z,03/01/23 10:14,10010675,0.246,0.0,584,23.6,29.2,84,11.0
2023-03-01T15:15:31Z,03/01/23 10:15,10010680,0.246,0.0,567,23.6,29.2,84,10.0
2023-03-01T15:16:31Z,03/01/23 10:16,10010684,0.23399999999999999,0.0,561,23.6,29.2,84,10.0
2023-03-01T15:17:31Z,03/01/23 10:17,10010690,0.267,0.0,559,23.6,29.2,84,11.0
2023-03-01T15:18:31Z,03/01/23 10:18,10010694,0.22200000000000003,0.0,569,23.6,29.2,84,11.0
2023-03-01T15:19:31Z,03/01/23 10:19,10010700,0.20800000000000002,0.002,559,23.6,29.2,84,11.0
2023-03-01T15:20:31Z,03/01/23 10:20,10010704,0.282,0.0,568,23.6,29.2,84,11.0
2023-03-01T15:21:31Z,03/01/23 10:21,10010709,0.282,0.0,571,23.6,29.3,84,10.0
2023-03-01T15:22:31Z,03/01/23 10:22,10010714,0.264,0.0,557,23.6,29.3,84,10.0
2023-03-01T15:23:31Z,03/01/23 10:23,10010719,0.246,0.0,567,23.6,29.3,84,11.0
2023-03-01T15:24:31Z,03/01/23 10:24,10010724,0.321,0.0,559,23.6,29.3,84,11.0
2023-03-01T15:25:31Z,03/01/23 10:25,10010729,0.246,0.0,567,23.6,29.3,84,11.0
2023-03-01T15:26:31Z,03/01/23 10:26,10010733,0.381,0.0,558,23.6,29.3,84,11.0
2023-03-01T15:27:31Z,03/01/23 10:27,10010738,0.248,0.004,565,23.6,29.4,84,11.0
2023-03-01T15:28:31Z,03/01/23 10:28,10010743,0.22799999999999998,0.0,557,23.6,29.4,84,11.0
2023-03-01T15:29:31Z,03/01/23 10:29,10010748,0.274,0.002,562,23.6,29.4,84,11.0
2023-03-01T15:30:31Z,03/01/23 10:30,10010752,0.288,0.0,552,23.6,29.4,84,11.0
2023-03-01T15:31:31Z,03/01/23 10:31,10010756,0.27599999999999997,0.0,564,23.6,29.4,84,11.0
2023-03-01T15:32:31Z,03/01/23 10:32,10010761,0.266,0.004,551,23.6,29.4,84,11.0
2023-03-01T15:33:31Z,03/01/23 10:33,10010766,0.22599999999999998,0.002,551,23.6,29.4,84,11.0
2023-03-01T15:34:31Z,03/01/23 10:34,10010771,0.262,0.002,557,23.6,29.5,84,11.0
2023-03-01T15:35:31Z,03/01/23 10:35,10010776,0.288,0.0,551,23.6,29.5,84,11.0
2023-03-01T15:36:31Z,03/01/23 10:36,10010780,0.21000000000000002,0.0,558,23.6,29.5,84,10.0
2023-03-01T15:37:31Z,03/01/23 10:37,10010784,0.34199999999999997,0.0,559,23.6,29.5,84,11.0
2023-03-01T15:38:31Z,03/01/23 10:38,10010788,0.236,0.004,549,23.6,29.5,84,11.0
2023-03-01T15:41:31Z,03/01/23 10:41,10010800,0.246,0.0,551,23.7,29.5,84,11.0
2023-03-01T15:42:31Z,03/01/23 10:42,10010805,0.34199999999999997,0.0,551,23.6,29.5,84,10.0
2023-03-01T15:43:31Z,03/01/23 10:43,10010809,0.21400000000000002,0.002,555,23.7,29.5,84,10.0
2023-03-01T15:44:31Z,03/01/23 10:44,10010813,0.22799999999999998,0.0,555,23.7,29.6,84,11.0
2023-03-01T15:45:31Z,03/01/23 10:45,10010817,0.27,0.0,548,23.7,29.6,84,11.0
2023-03-01T15:46:31Z,03/01/23 10:46,10010821,0.33399999999999996,0.002,542,23.7,29.6,84,11.0
2023-03-01T15:47:31Z,03/01/23 10:47,10010826,0.294,0.0,558,23.7,29.6,84,11.0
2023-03-01T15:48:31Z,03/01/23 10:48,10010832,0.252,0.0,562,23.7,29.6,84,11.0
2023-03-01T15:57:30Z,03/01/23 10:57,10010866,0.294,0.0,567,23.7,29.7,84,10.0
2023-03-01T15:58:30Z,03/01/23 10:58,10010871,0.29100000000000004,0.0,555,23.7,29.7,84,10.0
2023-03-01T15:59:30Z,03/01/23 10:59,10010875,0.28500000000000003,0.0,571,23.7,29.7,84,10.0
2023-03-01T16:00:30Z,03/01/23 11:00,10010880,0.288,0.0,557,23.7,29.7,84,10.0
2023-03-01T16:01:30Z,03/01/23 11:01,10010885,0.274,0.002,557,23.7,29.7,84,10.0
2023-03-01T16:02:30Z,03/01/23 11:02,10010890,0.333,0.0,561,23.7,29.7,84,10.0
2023-03-01T16:03:30Z,03/01/23 11:03,10010894,0.258,0.0,558,23.7,29.7,84,10.0
2023-03-01T16:04:30Z,03/01/23 11:04,10010898,0.327,0.0,562,23.7,29.7,84,11.0
2023-03-01T16:05:30Z,03/01/23 11:05,10010903,0.331,0.002,557,23.7,29.7,84,11.0
2023-03-01T16:06:30Z,03/01/23 11:06,10010908,0.269,0.004,548,23.7,29.7,84,10.0
2023-03-01T16:07:30Z,03/01/23 11:07,10010912,0.303,0.0,552,23.6,29.7,84,11.0
2023-03-01T16:08:30Z,03/01/23 11:08,10010918,0.348,0.0,562,23.6,29.7,84,11.0
2023-03-01T16:09:30Z,03/01/23 11:09,10010922,0.29500000000000004,0.002,551,23.6,29.7,84,11.0
2023-03-01T16:10:30Z,03/01/23 11:10,10010926,0.324,0.0,551,23.6,29.7,84,12.0
2023-03-01T16:11:30Z,03/01/23 11:11,10010931,0.316,0.002,551,23.6,29.7,84,12.0
2023-03-01T16:12:30Z,03/01/23 11:12,10010936,0.329,0.004,552,23.6,29.7,84,12.0
2023-03-01T16:13:30Z,03/01/23 11:13,10010940,0.312,0.0,545,23.5,29.7,84,12.0
2023-03-01T16:14:30Z,03/01/23 11:14,10010944,0.282,0.0,555,23.5,29.8,84,12.0
2023-03-01T16:15:30Z,03/01/23 11:15,10010950,0.27599999999999997,0.0,551,23.5,29.8,84,11.0
2023-03-01T16:16:30Z,03/01/23 11:16,10010955,0.46799999999999997,0.0,555,23.5,29.8,84,9.0
2023-03-01T16:17:30Z,03/01/23 11:17,10010960,0.27,0.0,564,23.5,29.9,84,11.0
2023-03-01T16:18:30Z,03/01/23 11:18,10010965,0.357,0.006,548,23.5,29.9,84,10.0
2023-03-01T16:19:30Z,03/01/23 11:19,10010969,0.385,0.002,559,23.5,30.0,84,10.0
2023-03-01T16:20:30Z,03/01/23 11:20,10010974,0.526,0.002,562,23.5,30.1,84,10.0
2023-03-01T16:21:30Z,03/01/23 11:21,10010978,0.369,0.0,571,23.5,30.1,84,10.0
2023-03-01T16:22:30Z,03/01/23 11:22,10010983,0.501,0.0,581,23.5,30.2,84,10.0
2023-03-01T16:23:30Z,03/01/23 11:23,10010988,0.357,0.0,612,23.5,30.3,84,9.0
2023-03-01T16:24:30Z,03/01/23 11:24,10010993,0.33399999999999996,0.002,628,23.5,30.5,84,8.0
2023-03-01T16:25:30Z,03/01/23 11:25,10010998,0.32999999999999996,0.0,668,23.5,30.6,84,7.0
2023-03-01T16:26:30Z,03/01/23 11:26,10011003,0.357,0.0,698,23.6,30.8,84,6.0
2023-03-01T16:27:30Z,03/01/23 11:27,10011007,0.331,0.002,695,23.6,30.9,84,5.0
2023-03-01T16:28:30Z,03/01/23 11:28,10011012,0.329,0.004,709,23.6,31.0,84,5.0
2023-03-01T16:29:30Z,03/01/23 11:29,10011016,0.445,0.002,701,23.7,31.1,84,4.0
2023-03-01T16:30:30Z,03/01/23 11:30,10011021,0.366,0.0,708,23.7,31.1,84,5.0
2023-03-01T16:31:30Z,03/01/23 11:31,10011025,0.312,0.0,716,23.7,31.2,84,5.0
2023-03-01T16:32:30Z,03/01/23 11:32,10011029,0.394,0.002,704,23.7,31.2,84,5.0
2023-03-01T16:33:30Z,03/01/23 11:33,10011033,0.465,0.0,684,23.7,31.1,84,6.0
2023-03-01T16:34:30Z,03/01/23 11:34,10011037,0.39,0.0,673,23.7,31.1,84,6.0
2023-03-01T16:35:30Z,03/01/23 11:35,10011041,0.417,0.0,678,23.7,31.1,84,7.0
2023-03-01T16:36:30Z,03/01/23 11:36,10011045,0.40800000000000003,0.0,667,23.7,31.0,84,8.0
2023-03-01T16:37:30Z,03/01/23 11:37,10011049,0.396,0.0,634,23.7,31.0,84,9.0
2023-03-01T16:38:30Z,03/01/23 11:38,10011053,0.36,0.0,622,23.7,31.0,84,9.0
2023-03-01T16:39:30Z,03/01/23 11:39,10011057,0.361,0.002,603,23.7,30.9,84,9.0
2023-03-01T16:40:30Z,03/01/23 11:40,10011061,0.488,0.004,609,23.7,30.9,84,9.0
2023-03-01T16:41:30Z,03/01/23 11:41,10011065,0.40800000000000003,0.0,600,23.7,30.9,84,9.0
2023-03-01T16:42:30Z,03/01/23 11:42,10011069,0.43600000000000005,0.002,606,23.7,31.0,84,10.0
2023-03-01T16:43:30Z,03/01/23 11:43,10011073,0.294,0.0,617,23.7,31.0,84,7.0
2023-03-01T16:44:30Z,03/01/23 11:44,10011077,0.493,0.002,629,23.7,31.0,84,8.0
2023-03-01T16:45:30Z,03/01/23 11:45,10011081,0.357,0.006,628,23.7,31.0,84,6.0
2023-03-01T16:46:30Z,03/01/23 11:46,10011085,0.422,0.004,628,23.7,31.1,84,5.0
2023-03-01T16:47:30Z,03/01/23 11:47,10011089,0.40800000000000003,0.0,632,23.7,31.2,84,4.0
2023-03-01T16:48:30Z,03/01/23 11:48,10011093,0.40199999999999997,0.0,653,23.7,31.2,84,4.0
2023-03-01T16:49:30Z,03/01/23 11:49,10011097,0.472,0.002,638,23.7,31.2,84,6.0
2023-03-01T16:50:30Z,03/01/23 11:50,10011101,0.42000000000000004,0.0,632,23.7,31.2,84,6.0
2023-03-01T16:51:30Z,03/01/23 11:51,10011105,0.396,0.0,629,23.7,31.2,84,5.0
2023-03-01T16:52:30Z,03/01/23 11:52,10011109,0.457,0.002,625,23.7,31.2,84,7.0
2023-03-01T16:53:30Z,03/01/23 11:53,10011113,0.515,0.004,617,23.7,31.2,84,7.0
2023-03-01T16:54:30Z,03/01/23 11:54,10011116,0.5349999999999999,0.002,616,23.7,31.2,84,7.0
2023-03-01T16:55:30Z,03/01/23 11:55,10011119,0.471,0.0,617,23.6,31.2,84,8.0
2023-03-01T16:56:30Z,03/01/23 11:56,10011123,0.46699999999999997,0.004,585,23.6,31.2,84,8.0
2023-03-01T16:57:30Z,03/01/23 11:57,10011126,0.43200000000000005,0.0,587,23.6,31.2,84,9.0
2023-03-01T16:58:30Z,03/01/23 11:58,10011131,0.315,0.0,582,23.5,31.3,84,9.0
2023-03-01T16:59:30Z,03/01/23 11:59,10011135,0.506,0.004,559,23.5,31.3,84,10.0
2023-03-01T17:00:30Z,03/01/23 12:00,10011139,0.5309999999999999,0.0,562,23.5,31.3,84,10.0
2023-03-01T17:01:31Z,03/01/23 12:01,10011143,0.303,0.0,555,23.5,31.3,84,10.0
2023-03-01T17:02:30Z,03/01/23 12:02,10011147,0.421,0.002,546,23.4,31.3,84,10.0
2023-03-01T17:03:30Z,03/01/23 12:03,10011151,0.607,0.002,537,23.4,31.3,84,9.0
2023-03-01T17:04:30Z,03/01/23 12:04,10011155,0.418,0.002,531,23.4,31.3,84,9.0
2023-03-01T17:05:30Z,03/01/23 12:05,10011160,0.346,0.002,532,23.4,31.3,84,10.0
2023-03-01T17:06:30Z,03/01/23 12:06,10011164,0.579,0.0,524,23.3,31.4,84,10.0
2023-03-01T17:07:30Z,03/01/23 12:07,10011167,0.354,0.0,528,23.3,31.4,84,10.0
2023-03-01T17:08:30Z,03/01/23 12:08,10011170,0.43,0.002,527,23.3,31.4,84,10.0
2023-03-01T17:09:30Z,03/01/23 12:09,10011174,0.391,0.002,530,23.3,31.4,84,10.0
2023-03-01T17:10:30Z,03/01/23 12:10,10011178,0.525,0.0,513,23.3,31.4,84,10.0
2023-03-01T17:11:30Z,03/01/23 12:11,10011182,0.537,0.0,513,23.3,31.4,84,10.0
2023-03-01T17:12:30Z,03/01/23 12:12,10011186,0.462,0.0,499,23.3,31.4,84,10.0
2023-03-01T17:13:30Z,03/01/23 12:13,10011190,0.47400000000000003,0.0,511,23.3,31.4,84,10.0
2023-03-01T17:14:30Z,03/01/23 12:14,10011194,0.479,0.004,503,23.3,31.5,84,10.0
2023-03-01T17:15:30Z,03/01/23 12:15,10011198,0.43,0.002,499,23.3,31.5,84,11.0
2023-03-01T17:16:31Z,03/01/23 12:16,10011202,0.45999999999999996,0.002,493,23.3,31.5,84,11.0
2023-03-01T17:17:30Z,03/01/23 12:17,10011206,0.375,0.0,499,23.2,31.5,84,11.0
2023-03-01T17:18:30Z,03/01/23 12:18,10011210,0.40800000000000003,0.0,500,23.2,31.5,84,10.0
2023-03-01T17:19:30Z,03/01/23 12:19,10011214,0.453,0.0,495,23.2,31.5,84,11.0
2023-03-01T17:20:31Z,03/01/23 12:20,10011218,0.429,0.0,492,23.2,31.5,84,11.0
2023-03-01T17:21:30Z,03/01/23 12:21,10011222,0.438,0.006,483,23.2,31.5,84,11.0
2023-03-01T17:22:30Z,03/01/23 12:22,10011226,0.481,0.002,501,23.2,31.5,84,11.0
2023-03-01T17:23:30Z,03/01/23 12:23,10011230,0.44800000000000006,0.002,497,23.2,31.6,84,11.0
2023-03-01T17:24:31Z,03/01/23 12:24,10011234,0.571,0.002,501,23.3,31.6,84,11.0
2023-03-01T17:25:30Z,03/01/23 12:25,10011238,0.504,0.0,500,23.3,31.6,84,11.0
2023-03-01T17:26:30Z,03/01/23 12:26,10011241,0.641,0.004,506,23.3,31.7,84,11.0
2023-03-01T17:27:30Z,03/01/23 12:27,10011246,0.47800000000000004,0.002,514,23.3,31.7,84,12.0
2023-03-01T17:28:31Z,03/01/23 12:28,10011250,0.502,0.002,517,23.3,31.8,84,10.0
2023-03-01T17:29:30Z,03/01/23 12:29,10011253,0.591,0.0,523,23.3,31.8,84,11.0
2023-03-01T17:30:30Z,03/01/23 12:30,10011257,0.528,0.0,535,23.3,31.9,84,11.0
2023-03-01T17:31:30Z,03/01/23 12:31,10011261,0.658,0.002,555,23.3,32.0,84,10.0
2023-03-01T17:32:31Z,03/01/23 12:32,10011265,0.515,0.004,580,23.4,32.1,84,7.0
2023-03-01T17:33:31Z,03/01/23 12:33,10011269,0.49000000000000005,0.002,580,23.4,32.1,84,9.0
2023-03-01T17:34:31Z,03/01/23 12:34,10011273,0.6,0.0,584,23.4,32.1,84,9.0
2023-03-01T17:35:31Z,03/01/23 12:35,10011277,0.686,0.004,605,23.4,32.2,84,9.0
2023-03-01T17:36:31Z,03/01/23 12:36,10011281,0.742,0.002,602,23.4,32.2,84,8.0
2023-03-01T17:37:31Z,03/01/23 12:37,10011285,0.604,0.002,600,23.4,32.2,84,10.0
2023-03-01T17:38:31Z,03/01/23 12:38,10011289,0.688,0.002,606,23.5,32.3,84,9.0
2023-03-01T17:39:31Z,03/01/23 12:39,10011292,0.7110000000000001,0.0,605,23.5,32.3,84,9.0
2023-03-01T17:40:31Z,03/01/23 12:40,10011295,0.496,0.002,625,23.5,32.4,84,8.0
2023-03-01T17:41:31Z,03/01/23 12:41,10011299,0.633,0.0,629,23.5,32.4,84,8.0
2023-03-01T17:42:31Z,03/01/23 12:42,10011303,0.522,0.0,622,23.5,32.4,84,8.0
2023-03-01T17:43:31Z,03/01/23 12:43,10011307,0.532,0.002,617,23.5,32.4,84,8.0
2023-03-01T17:44:31Z,03/01/23 12:44,10011311,0.544,0.002,608,23.5,32.4,84,8.0
2023-03-01T17:45:31Z,03/01/23 12:45,10011315,0.51,0.0,602,23.5,32.3,84,9.0
2023-03-01T17:46:31Z,03/01/23 12:46,10011319,0.48,0.0,611,23.5,32.4,84,10.0
2023-03-01T17:47:31Z,03/01/23 12:47,10011323,0.629,0.004,600,23.5,32.4,84,10.0
2023-03-01T17:48:31Z,03/01/23 12:48,10011326,0.7150000000000001,0.002,590,23.5,32.4,84,10.0
2023-03-01T17:49:31Z,03/01/23 12:49,10011330,0.5980000000000001,0.002,600,23.5,32.4,84,10.0
2023-03-01T17:50:31Z,03/01/23 12:50,10011334,0.603,0.0,590,23.5,32.4,84,10.0
2023-03-01T17:51:31Z,03/01/23 12:51,10011337,0.588,0.0,587,23.5,32.4,84,11.0
2023-03-01T17:52:31Z,03/01/23 12:52,10011341,0.592,0.002,587,23.5,32.4,84,10.0
2023-03-01T17:53:31Z,03/01/23 12:53,10011345,0.44400000000000006,0.0,587,23.5,32.4,84,10.0
2023-03-01T17:54:31Z,03/01/23 12:54,10011349,0.637,0.002,575,23.5,32.4,84,10.0
2023-03-01T17:55:31Z,03/01/23 12:55,10011353,0.609,0.006,584,23.5,32.3,84,11.0
2023-03-01T17:56:31Z,03/01/23 12:56,10011357,0.576,0.0,572,23.5,32.4,84,11.0
2023-03-01T17:57:31Z,03/01/23 12:57,10011361,0.479,0.004,574,23.5,32.3,84,11.0
2023-03-01T17:58:31Z,03/01/23 12:58,10011365,0.493,0.002,574,23.5,32.3,84,12.0
2023-03-01T17:59:31Z,03/01/23 12:59,10011369,0.51,0.0,555,23.5,32.3,84,12.0
2023-03-01T18:00:31Z,03/01/23 13:00,10011373,0.562,0.002,561,23.5,32.3,84,12.0
2023-03-01T18:01:31Z,03/01/23 13:01,10011377,0.47400000000000003,0.0,555,23.5,32.2,84,12.0
2023-03-01T18:02:31Z,03/01/23 13:02,10011382,0.513,0.0,551,23.5,32.2,84,12.0
2023-03-01T18:03:31Z,03/01/23 13:03,10011386,0.6,0.0,561,23.5,32.2,84,11.0
2023-03-01T18:04:31Z,03/01/23 13:04,10011390,0.483,0.0,544,23.5,32.2,84,12.0
2023-03-01T18:05:31Z,03/01/23 13:05,10011394,0.591,0.0,541,23.4,32.2,84,13.0
2023-03-01T18:06:31Z,03/01/23 13:06,10011398,0.679,0.002,535,23.5,32.2,84,12.0
2023-03-01T18:07:31Z,03/01/23 13:07,10011402,0.363,0.0,542,23.5,32.2,84,12.0
2023-03-01T18:08:31Z,03/01/23 13:08,10011406,0.49800000000000005,0.0,545,23.5,32.2,84,12.0
2023-03-01T18:09:31Z,03/01/23 13:09,10011410,0.489,0.0,542,23.5,32.1,84,13.0
2023-03-01T18:10:31Z,03/01/23 13:10,10011414,0.545,0.004,518,23.5,32.1,84,12.0
2023-03-01T18:11:31Z,03/01/23 13:11,10011418,0.561,0.0,521,23.5,32.1,84,13.0
2023-03-01T18:12:31Z,03/01/23 13:12,10011422,0.42699999999999994,0.002,530,23.5,32.1,84,13.0
2023-03-01T18:13:31Z,03/01/23 13:13,10011426,0.47800000000000004,0.002,525,23.5,32.1,84,13.0
2023-03-01T18:14:31Z,03/01/23 13:14,10011430,0.47400000000000003,0.0,535,23.5,33.2,84,21.0
2023-03-01T18:15:31Z,03/01/23 13:15,10011434,0.6599999999999999,0.0,521,23.5,33.1,84,17.0
2023-03-01T18:16:31Z,03/01/23 13:16,10011438,0.5589999999999999,0.002,511,23.5,33.0,84,19.0
2023-03-01T18:17:31Z,03/01/23 13:17,10011442,0.613,0.002,518,23.5,32.7,84,15.0
2023-03-01T18:18:31Z,03/01/23 13:18,10011446,0.579,0.006,515,23.4,32.7,84,19.0
2023-03-01T18:19:31Z,03/01/23 13:19,10011450,0.607,0.008,513,23.4,32.6,84,19.0
2023-03-01T18:20:31Z,03/01/23 13:20,10011454,0.507,0.0,500,23.4,32.5,84,17.0
2023-03-01T18:21:31Z,03/01/23 13:21,10011458,0.526,0.002,513,23.4,32.4,84,16.0
2023-03-01T18:22:31Z,03/01/23 13:22,10011462,0.426,0.0,501,23.4,32.4,84,16.0
2023-03-01T18:23:31Z,03/01/23 13:23,10011466,0.49800000000000005,0.0,499,23.4,32.3,84,16.0
2023-03-01T18:24:31Z,03/01/23 13:24,10011470,0.45899999999999996,0.0,495,23.4,32.2,84,15.0
2023-03-01T18:25:31Z,03/01/23 13:25,10011474,0.484,0.002,496,23.3,32.2,84,15.0
2023-03-01T18:26:31Z,03/01/23 13:26,10011478,0.348,0.0,492,23.3,32.2,84,15.0